TESTR11 KNIP-KVQQ

Flight info

Callsign TESTR11
Flight time 0h -12m
Altitude 31000
Route KJ90U/N0512F300
Aircraft T38/M-VD/C

Departure

Time 2026-04-24 21:56
Airport Jacksonville Naval Air Station (Towers Field) (KNIP)

Arrival

Time 2026-04-24 21:44
Airport Cecil Airport (KVQQ)
Time Latitude Longitude Altitude Speed Heading
2026-04-24 21:44 30.22985 -81.67683 25 ft 0 kts 181°
2026-04-24 21:52 30.22967 -81.67710 25 ft 6 kts 270°
2026-04-24 21:52 30.22967 -81.67765 24 ft 8 kts 270°
2026-04-24 21:52 30.22967 -81.67840 24 ft 10 kts 271°
2026-04-24 21:52 30.22968 -81.67932 24 ft 13 kts 271°
2026-04-24 21:53 30.22979 -81.68027 26 ft 6 kts 345°
2026-04-24 21:53 30.23040 -81.68050 24 ft 11 kts 287°
2026-04-24 21:53 30.23039 -81.68170 23 ft 21 kts 268°
2026-04-24 21:53 30.23033 -81.68352 23 ft 24 kts 268°
2026-04-24 21:54 30.23028 -81.68546 24 ft 25 kts 268°
2026-04-24 21:54 30.23024 -81.68747 24 ft 26 kts 269°
2026-04-24 21:54 30.23045 -81.68930 25 ft 12 kts 343°
2026-04-24 21:54 30.23069 -81.68931 25 ft 0 kts
2026-04-24 21:55 30.23093 -81.68930 25 ft 11 kts
2026-04-24 21:55 30.23162 -81.68901 27 ft 7 kts 101°
2026-04-24 21:55 30.23160 -81.68867 24 ft 0 kts 89°
2026-04-24 21:56 30.23160 -81.68858 24 ft 15 kts 89°
2026-04-24 21:56 30.23164 -81.68342 21 ft 110 kts 89°
2026-04-24 21:56 30.23164 -81.67171 115 ft 170 kts 91°
2026-04-24 21:56 30.23166 -81.65767 1377 ft 177 kts 90°
2026-04-24 21:57 30.23223 -81.64189 2399 ft 223 kts 90°
2026-04-24 21:57 30.23267 -81.62201 3388 ft 267 kts 90°
2026-04-24 21:57 30.23309 -81.59946 4849 ft 285 kts 89°
2026-04-24 21:57 30.23366 -81.57831 7517 ft 228 kts 88°
2026-04-24 21:58 30.23388 -81.55814 8778 ft 282 kts 94°
2026-04-24 21:58 30.23001 -81.53353 9197 ft 340 kts 103°
2026-04-24 21:58 30.22469 -81.50566 10098 ft 359 kts 101°
2026-04-24 21:58 30.21979 -81.47750 11224 ft 354 kts 100°
2026-04-24 21:59 30.21506 -81.44966 12291 ft 353 kts 100°
2026-04-24 21:59 30.21037 -81.42147 13100 ft 362 kts 99°
2026-04-24 21:59 30.20597 -81.39200 13803 ft 378 kts 99°
2026-04-24 21:59 30.20150 -81.36181 15282 ft 381 kts 98°
2026-04-24 22:00 30.19712 -81.33158 16934 ft 383 kts 98°
2026-04-24 22:00 30.19223 -81.30034 17772 ft 411 kts 99°
2026-04-24 22:00 30.18653 -81.26702 18198 ft 444 kts 100°
2026-04-24 22:00 30.18022 -81.23089 18705 ft 469 kts 100°
2026-04-24 22:01 30.17373 -81.19353 19763 ft 476 kts 100°
2026-04-24 22:01 30.16727 -81.15593 21558 ft 462 kts 100°
2026-04-24 22:01 30.16126 -81.12059 23663 ft 434 kts 100°
2026-04-24 22:01 30.15559 -81.08708 24941 ft 422 kts 100°
2026-04-24 22:02 30.15017 -81.05380 25271 ft 438 kts 99°
2026-04-24 22:02 30.14445 -81.01763 24878 ft 478 kts 99°
2026-04-24 22:02 30.13829 -80.97825 24599 ft 514 kts 99°
2026-04-24 22:02 30.13189 -80.93690 24951 ft 533 kts 99°
2026-04-24 22:03 30.12531 -80.89340 24544 ft 571 kts 99°
2026-04-24 22:03 30.11818 -80.84597 22483 ft 626 kts 99°
2026-04-24 22:03 30.10975 -80.79284 19878 ft 702 kts 100°
2026-04-24 22:03 30.10080 -80.73673 19830 ft 714 kts 100°
2026-04-24 22:04 30.09181 -80.68005 20142 ft 720 kts 99°
2026-04-24 22:04 30.08304 -80.62299 20625 ft 722 kts 99°
2026-04-24 22:04 30.07451 -80.56682 21488 ft 690 kts 99°
2026-04-24 22:04 30.06647 -80.51439 23727 ft 634 kts 99°
2026-04-24 22:05 30.05886 -80.46574 25330 ft 591 kts 99°
2026-04-24 22:05 30.05210 -80.42342 29626 ft 469 kts 100°
2026-04-24 22:05 30.04708 -80.39143 34778 ft 352 kts 100°
2026-04-24 22:05 30.04332 -80.36546 37492 ft 318 kts 100°
2026-04-24 22:06 30.03970 -80.33931 36739 ft 352 kts 100°
2026-04-24 22:06 30.02998 -80.31210 35338 ft 390 kts 147°
2026-04-24 22:06 30.00394 -80.30881 33411 ft 419 kts 217°
2026-04-24 22:06 29.98941 -80.33661 32839 ft 423 kts 273°
2026-04-24 22:07 29.99960 -80.36725 33531 ft 406 kts 306°
2026-04-24 22:07 30.01635 -80.39206 35028 ft 370 kts 307°
2026-04-24 22:07 30.03277 -80.41546 34746 ft 388 kts 307°
2026-04-24 22:07 30.05138 -80.44187 32881 ft 450 kts 308°
2026-04-24 22:08 30.07122 -80.47009 32869 ft 453 kts 307°
2026-04-24 22:08 30.08927 -80.49999 32766 ft 458 kts 301°
2026-04-24 22:08 30.10618 -80.53150 32530 ft 466 kts 301°
2026-04-24 22:08 30.12342 -80.56353 32297 ft 473 kts 302°
2026-04-24 22:09 30.14802 -80.58843 31984 ft 485 kts 340°
2026-04-24 22:09 30.18136 -80.58730 31667 ft 502 kts 27°
2026-04-24 22:09 30.20457 -80.55763 31483 ft 513 kts 70°
2026-04-24 22:09 30.20875 -80.51688 31408 ft 516 kts 97°
2026-04-24 22:10 30.20235 -80.47606 31455 ft 516 kts 102°
2026-04-24 22:10 30.19492 -80.43568 31742 ft 510 kts 102°
2026-04-24 22:10 30.18737 -80.39580 31989 ft 507 kts 102°
2026-04-24 22:10 30.17971 -80.35605 32115 ft 506 kts 102°
2026-04-24 22:11 30.17192 -80.31614 32115 ft 508 kts 103°
2026-04-24 22:11 30.15595 -80.23598 32039 ft 513 kts 103°
2026-04-24 22:12 30.13949 -80.15569 32240 ft 512 kts 103°
2026-04-24 22:12 30.13109 -80.11580 32434 ft 509 kts 104°
2026-04-24 22:12 30.12273 -80.07668 32616 ft 507 kts 104°
2026-04-24 22:12 30.11420 -80.03718 32736 ft 506 kts 104°
2026-04-24 22:13 30.10558 -79.99772 32770 ft 507 kts 104°
2026-04-24 22:13 30.08792 -79.91824 32612 ft 514 kts 104°
2026-04-24 22:13 30.07888 -79.87839 32763 ft 511 kts 105°
2026-04-24 22:14 30.06984 -79.83896 33168 ft 503 kts 105°
2026-04-24 22:14 30.06088 -79.80012 33616 ft 495 kts 105°
2026-04-24 22:14 30.05193 -79.76171 33698 ft 497 kts 105°
2026-04-24 22:14 30.04269 -79.72267 33156 ft 511 kts 105°
2026-04-24 22:15 30.03302 -79.68257 32400 ft 527 kts 105°
2026-04-24 22:15 30.02547 -79.60004 32458 ft 519 kts 70°
2026-04-24 22:15 30.04344 -79.56482 32425 ft 511 kts 41°
2026-04-24 22:16 30.06225 -79.54890 32362 ft 505 kts 22°
2026-04-24 22:16 30.10648 -79.54825 32153 ft 490 kts 328°
2026-04-24 22:16 30.12809 -79.57743 31618 ft 493 kts 285°
2026-04-24 22:16 30.13559 -79.61612 31492 ft 494 kts 282°
2026-04-24 22:17 30.14008 -79.64229 31714 ft 488 kts 281°
2026-04-24 22:17 30.14653 -79.68027 32342 ft 475 kts 281°
2026-04-24 22:17 30.15286 -79.71791 32178 ft 480 kts 281°
2026-04-24 22:17 30.15929 -79.75642 31509 ft 495 kts 281°
2026-04-24 22:18 30.16688 -79.79522 31578 ft 492 kts 290°
2026-04-24 22:18 30.18175 -79.83019 31559 ft 489 kts 323°
2026-04-24 22:18 30.21400 -79.83489 31270 ft 506 kts 32°
2026-04-24 22:18 30.22800 -79.79980 31172 ft 516 kts 104°
2026-04-24 22:19 30.21573 -79.76089 31353 ft 516 kts 111°
2026-04-24 22:19 30.21119 -79.72141 31224 ft 513 kts 66°
2026-04-24 22:19 30.23578 -79.69484 30903 ft 497 kts
2026-04-24 22:19 30.26636 -79.70725 30715 ft 482 kts 306°
2026-04-24 22:20 30.28079 -79.74133 31418 ft 470 kts 292°
2026-04-24 22:20 30.29276 -79.77646 31796 ft 468 kts 291°
2026-04-24 22:20 30.30445 -79.81144 32277 ft 464 kts 291°
2026-04-24 22:20 30.31603 -79.84609 32801 ft 459 kts 291°
2026-04-24 22:21 30.32757 -79.88090 32749 ft 469 kts 293°
2026-04-24 22:21 30.35353 -79.90109 32340 ft 481 kts 349°
2026-04-24 22:21 30.38750 -79.90434 31281 ft 502 kts 359°
2026-04-24 22:21 30.42327 -79.90163 29852 ft 525 kts
2026-04-24 22:22 30.45965 -79.89753 29393 ft 521 kts
2026-04-24 22:22 30.49136 -79.91079 28757 ft 494 kts 306°
2026-04-24 22:22 30.50005 -79.94761 27012 ft 499 kts 255°
2026-04-24 22:22 30.47647 -79.97650 24642 ft 532 kts 195°
2026-04-24 22:23 30.43913 -79.97817 22649 ft 537 kts 182°
2026-04-24 22:23 30.40304 -79.97834 22355 ft 502 kts 182°
2026-04-24 22:23 30.36834 -79.97850 22086 ft 496 kts 182°
2026-04-24 22:23 30.33393 -79.97869 21770 ft 493 kts 182°
2026-04-24 22:24 30.29960 -79.97935 21467 ft 490 kts 188°
2026-04-24 22:24 30.26790 -79.99102 21096 ft 474 kts 211°
2026-04-24 22:24 30.24056 -80.01191 20480 ft 471 kts 219°
2026-04-24 22:24 30.21450 -80.03491 19854 ft 472 kts 220°
2026-04-24 22:25 30.18934 -80.05917 19381 ft 468 kts 224°
2026-04-24 22:25 30.16577 -80.08432 19494 ft 452 kts 224°
2026-04-24 22:25 30.14271 -80.10837 19418 ft 444 kts 224°
2026-04-24 22:25 30.11995 -80.13234 19062 ft 443 kts 225°
2026-04-24 22:26 30.09774 -80.15712 18635 ft 444 kts 226°
2026-04-24 22:26 30.07670 -80.18271 18564 ft 435 kts 230°
2026-04-24 22:26 30.05699 -80.20904 18326 ft 432 kts 232°
2026-04-24 22:26 30.03775 -80.23577 17837 ft 435 kts 233°
2026-04-24 22:27 30.01884 -80.26339 17383 ft 437 kts 239°
2026-04-24 22:27 30.00521 -80.29406 17658 ft 427 kts 249°
2026-04-24 22:27 29.99504 -80.32594 18092 ft 420 kts 253°
2026-04-24 22:27 29.98846 -80.35939 18466 ft 431 kts 265°
2026-04-24 22:28 29.98669 -80.39372 18832 ft 426 kts 270°
2026-04-24 22:28 29.98684 -80.42762 19229 ft 420 kts 272°